sat.trackr.live / text

‹ back to catalog

EUTELSAT 36D

NORAD 59346 · 2024-059A

PAYLOAD ACTIVE UNKNOWN

§ Identity

Operator
Country
EUTE
Launch date
2024-03-30
Launch site
AFETR
Launch vehicle
Mass (kg)
RCS (m²)

Purposes: comms

External: N2YO · Heavens-Above · Gunter

§ Orbital elements

Epoch: 2026-05-24T22:46:47.187264Z

Period
1,436.10 min
Inclination
0.0165°
Eccentricity
0.0000147
Mean motion
1.00271599 rev/d
Perigee alt
35,786.0 km
Apogee alt
35,787.3 km
Semi-major
42,164.8 km
B*
0.0000e+0
RAAN
309.5739°
Arg perigee
107.2001°
Mean anomaly
203.3356°
Rev number
791

§ Raw data

EUTELSAT 36D1 59346U 24059A   26144.94915726  .00000000  00000+0  00000+0 0  99952 59346   0.0165 309.5739 0000147 107.2001 203.3356  1.00271599  7913

JSON: /api/v1/satellites/59346 · /tle

For live sub-satellite position, see the globe view (requires WebGL).

§ Visibility from observer

Set your observer location to see the next 7 days of passes ≥ 10°. The values pass through the URL so the page stays shareable.

No JS? Fill the form by hand. The geolocation button needs JavaScript.